Tracking 30696 objects as of 15-Jun-2025
HD Live streaming from Space Station
objects crossing your sky now

OBJECT N

Track OBJECT N now!
10-day predictions


NORAD ID: 44891
Int'l Code: 2019-093M
Perigee: 517.4 km
Apogee: 529.0 km
Inclination: 98.0 °
Period: 94.9 minutes
Semi major axis: 6894 km
RCS: Unknown
Launch date: December 20, 2019
Source: (TBD)
Launch site: Taiyaun Space Center, China (TSC)
Your satellite tracking list
Your tracking list is empty




NASA's NSSDC Master Catalog

Two Line Element Set (TLE):
1 44891U 19093N   25166.50081925  .00009959  00000-0  51244-3 0  9999
2 44891  98.0247 301.1790 0008422 231.2934 128.7545 15.16628665298871
Source of the keplerian elements: AFSPC